Tracking 32938 objects as of 13-Jan-2026
HD Live streaming from Space Station
objects crossing your sky now

STARLINK-32408

Track STARLINK-32408 now!
10-day predictions
STARLINK-32408 is classified as:


NORAD ID: 62054
Int'l Code: 2024-216Y
Perigee: 489.9 km
Apogee: 490.6 km
Inclination: 43.0 °
Period: 94.3 minutes
Semi major axis: 6861 km
RCS: Unknown
Launch date: November 21, 2024
Source: United States (US)
Launch site: AIR FORCE EASTERN TEST RANGE (AFETR)
Your satellite tracking list
Your tracking list is empty




NASA's NSSDC Master Catalog

Two Line Element Set (TLE):
1 62054U 24216Y   26013.22998527  .00026106  00000-0  95512-3 0  9998
2 62054  42.9965 209.5406 0000497 285.4927  74.5870 15.27569452 65409
Source of the keplerian elements: AFSPC